Flag for Swaziland Weather past 2 weeks in Big Bend, Swaziland

Now
70 °F

Partly sunny.


Feels Like: 70 °F
Forecast: 56 / 89 °F
Wind: 14 mph from South

Location: Maputo / Mavalane

Current Time: Mar 3, 2015 at 7:36:12 AM

Latest Report: Mar 3, 2015 at 7:00 AM


Visibility: N/A

Pressure: 30.24 "Hg

Humidity: 57%

Dew point: 54 °F

Location of Big BendLocation

Historic Weather in Big Bend — Graph

°F

Big Bend temperature yesterday

Maximum temperature yesterday: 88 °F (at 12:00 PM)
Minimum temperature yesterday: 70 °F (at 11:00 PM)
Average temperature yesterday: 77 °F

Past Weeks' High & Low Weather Summary

 TemperatureHumidityPressure
High95 °F (Feb 22, 6:00 PM)100% (Mar 1, 2:00 PM)30.24 "Hg (Mar 1, 2:00 PM)
Low64 °F (Feb 18, 6:00 AM)29% (Feb 18, 12:00 PM)29.74 "Hg (Feb 26, 4:00 PM)
Average79 °F66%29.96 "Hg
* Reported Feb 16 6:00 AM — Mar 3 6:00 AM, Big Bend, Weather by CustomWeather, © 2015

Note: Actual official high and low records may vary slightly from our data, if they occured in-between our weather recording intervals... More about our weather records

Advertising

Big Bend weather history for previous 24 hours

 ConditionsComfort  
Time TempWeatherWind HumidityBarometerVisibility
6:00 AM
Tue, Mar 3
66 °FPartly sunny.13 mph68%30.24 "HgN/A
5:00 AM66 °FScattered clouds.12 mph68%30.21 "HgN/A
4:00 AM66 °FPassing clouds.13 mph68%30.21 "HgN/A
2:00 AM68 °FPassing clouds.14 mph64%30.24 "HgN/A
11:00 PM
Mon, Mar 2
70 °FPassing clouds.14 mph60%30.24 "HgN/A
10:00 PM72 °FPassing clouds.13 mph57%30.24 "HgN/A
8:00 PM73 °FPassing clouds.14 mph50%30.21 "HgN/A
7:00 PM75 °FPassing clouds.21 mph50%30.18 "HgN/A
6:00 PM77 °FPassing clouds.22 mph51%30.15 "HgN/A
5:00 PM79 °FPassing clouds.23 mph51%30.12 "Hg6 mi
4:00 PM81 °FScattered clouds.21 mph51%30.09 "Hg6 mi
3:00 PM82 °FPartly sunny.22 mph48%30.07 "Hg6 mi
2:00 PM81 °FRain. Partly sunny.21 mph54%30.07 "Hg4 mi
1:00 PM81 °FPartly sunny.20 mph54%30.07 "HgN/A
12:00 PM88 °FBroken clouds.20 mph46%30.07 "HgN/A
11:00 AM84 °FPartly sunny.16 mph45%30.07 "HgN/A
10:00 AM82 °FPartly sunny.18 mph51%30.07 "HgN/A
9:00 AM82 °FPartly sunny.20 mph55%30.04 "HgN/A
8:00 AM75 °FBroken clouds.15 mph65%30.04 "HgN/A
7:00 AM73 °FBroken clouds.14 mph69%30.01 "HgN/A
Weather by CustomWeather, © 2015

See weather overviewHow to use our weather pages